Back to catalog

TURKSAT 1C

AliveCommunicationsGEO
NORAD 23949·PAYLOAD·🇹🇷 Turkey

Launched Jul 9, 1996 from Guiana Space Centre

Loading…

TLE

FreshSource: Space-Track

Epoch: Sep 13, 2026, 17:52 UTC

1 23949U 96040B   26256.74493458 -.00000364  00000-0  00000-0 0  9995
2 23949  12.1923  29.4535 0007883 178.6240 179.5231  1.00303103110561

Track TURKSAT 1C in real time with AllMySat

Download on the App Store